Home   Weather   Thane   Past weeks

Flag for India Past Weather in Thane, Maharashtra, India — Yesterday and Last 2 Weeks

Now
86 °F

Passing clouds.


Feels Like: 92 °F
Forecast: 75 / 94 °F
Wind: 9 mph from West

Location: Mumbai / Santacruz

Current Time: Dec 4, 2016 at 5:43:30 pm

Latest Report: Dec 4, 2016 at 5:00 pm


Visibility: 2 mi

Pressure: 29.89 "Hg

Humidity: 62%

Dew Point: 72 °F

Location of ThaneLocation

Past Weather in Thane — Graph

°F

Thane Temperature Yesterday

Maximum temperature yesterday: 95 °F (at 3:00 pm)
Minimum temperature yesterday: 72 °F (at 6:30 am)
Average temperature yesterday: 84 °F

High & Low Weather Summary for the Past Weeks

 TemperatureHumidityPressure
High97 °F (Dec 4, 1:30 pm)83% (Nov 29, 3:30 am)30.04 "Hg (Nov 29, 3:30 am)
Low70 °F (Nov 21, 5:00 am)16% (Nov 21, 2:00 pm)29.77 "Hg (Nov 19, 4:30 pm)
Average83 °F47%29.88 "Hg
* Reported Nov 19 4:30 pm — Dec 4 4:30 pm, Thane, Weather by CustomWeather, © 2016

Note: Actual official high and low records may vary slightly from our data, if they occured in-between our weather recording intervals... More about our weather records

Advertising

Thane Weather History for the Previous 24 Hours

Scroll right to see more
 ConditionsComfort  
Time TempWeatherWind HumidityBarometerVisibility
4:30 pm
Sun, Dec 4
88 °FScattered clouds.10 mph59%29.89 "Hg2 mi
4:00 pm90 °FScattered clouds.12 mph52%29.89 "Hg2 mi
3:30 pm93 °FScattered clouds.8 mph47%29.89 "Hg2 mi
3:00 pm95 °FScattered clouds.9 mph39%29.89 "Hg2 mi
2:30 pm93 °FPassing clouds.7 mph41%29.89 "Hg2 mi
2:00 pm93 °FClear.7 mph41%29.89 "Hg2 mi
1:30 pm97 °FClear.9 mph39%29.92 "Hg2 mi
1:00 pm95 °FClear.9 mph41%29.95 "Hg2 mi
12:30 pm93 °FClear.8 mph41%29.95 "Hg2 mi
12:00 pm91 °FClear.8 mph44%29.98 "Hg2 mi
11:30 am90 °FClear.12 mph46%30.01 "Hg2 mi
11:00 am90 °FClear.13 mph43%30.01 "Hg2 mi
10:30 am88 °FClear.12 mph46%30.01 "Hg2 mi
10:00 am86 °FClear.12 mph46%30.04 "Hg2 mi
9:30 am86 °FClear.7 mph49%30.04 "Hg1 mi
9:00 am86 °FClear.6 mph49%30.01 "Hg1 mi
8:30 am82 °FClear.8 mph51%30.01 "Hg1 mi
7:30 am81 °FClear.6 mph51%29.98 "Hg1 mi
7:00 am81 °FClear.7 mph51%29.95 "Hg1 mi
6:30 am81 °FClear.3 mph54%29.95 "Hg1 mi
6:00 am81 °FClear.8 mph51%29.92 "Hg1 mi
5:30 am81 °FClear.10 mph48%29.92 "Hg1 mi
5:00 am81 °FClear.7 mph51%29.92 "Hg1 mi
4:30 am82 °FClear.6 mph51%29.92 "Hg1 mi
4:00 am82 °FClear.9 mph51%29.92 "Hg1 mi
3:30 am82 °FClear.6 mph51%29.92 "Hg1 mi
3:00 am81 °FClear.7 mph51%29.92 "Hg1 mi
2:30 am81 °FClear.6 mph51%29.92 "Hg1 mi
2:00 am82 °FClear.6 mph48%29.92 "Hg1 mi
1:30 am82 °FClear.6 mph48%29.92 "Hg1 mi
1:00 am81 °FClear.3 mph51%29.92 "Hg1 mi
12:30 am81 °FClear.3 mph51%29.95 "Hg1 mi
12:00 am81 °FClear.6 mph54%29.95 "Hg1 mi
11:30 pm
Sat, Dec 3
81 °FClear.6 mph54%29.95 "Hg1 mi
11:00 pm82 °FClear.3 mph51%29.95 "Hg1 mi
10:30 pm82 °FClear.5 mph51%29.95 "Hg1 mi
10:00 pm82 °FClear.5 mph55%29.95 "Hg1 mi
9:30 pm84 °FClear.6 mph55%29.95 "Hg1 mi
9:00 pm84 °FClear.6 mph55%29.95 "Hg1 mi
8:30 pm84 °FClear.6 mph55%29.95 "Hg1 mi
8:00 pm84 °FClear.6 mph55%29.92 "Hg1 mi
7:30 pm86 °FClear.7 mph52%29.92 "Hg1 mi
7:00 pm86 °FClear.8 mph52%29.89 "Hg1 mi
6:30 pm86 °FClear.5 mph52%29.89 "Hg1 mi
5:30 pm88 °FClear.7 mph49%29.86 "Hg2 mi
5:00 pm90 °FClear.7 mph49%29.86 "Hg2 mi
Weather by CustomWeather, © 2016

See weather overviewHow to use our weather pages